Simultaneous Nadir Overpasses (SNOs) Predictions

Prediction of SNOs between METOP-B and NOAA-19 Satellite Orbit:

Table of predicted SNOs for the next 14.0 days since TLE Epoch: 7/29/2016
Index Date (METOP-B) Time (METOP-B) Lat,Lon (METOP-B) SZA (METOP-B ) Date (NOAA-19) Time (NOAA-19) Lat,Lon (NOAA-19) SZA (NOAA-19 ) Distance(km) Time Diff (sec)
1 08/07/2016 19:03:02 -76.24, 75.51 119.97 08/07/2016 19:01:49 -76.25, 75.49 119.96 1.52 73
2 08/07/2016 19:53:42 76.22,-117.22 60.03 08/07/2016 19:52:50 76.25,-117.26 60.06 3.60 52
3 08/07/2016 20:44:24 -76.22, 50.11 119.97 08/07/2016 20:43:50 -76.21, 50.15 119.98 1.90 34
4 08/07/2016 21:35:04 76.20,-142.62 60.03 08/07/2016 21:34:51 76.21,-142.61 60.03 0.58 13
5 08/07/2016 22:25:45 -76.21, 24.71 119.96 08/07/2016 22:25:51 -76.21, 24.64 119.96 2.03 6
6
